Vernal, UT

4:49 PM MST on December 15, 2019 (GMT -0700)
Vernal

Weather History for KVEL - November, 2019

Change the Weather History Date:

Friday, November 22, 2019

  Actual Average Record
Temperature  
Mean Temperature 37 °F 31 °F  
Max Temperature 45 °F 41 °F 59 °F (1933)
Min Temperature 29 °F 21 °F -10 °F (1930)
Degree Days  
Heating Degree Days 28 34  
Month to date heating degree days 618 632  
Since 1 July heating degree days 1495 1336  
Cooling Degree Days 0 0  
Month to date cooling degree days 0 0  
Year to date cooling degree days 671 511  
Moisture  
Dew Point 29 °F    
Average Humidity 74    
Maximum Humidity 89    
Minimum Humidity 56    
Precipitation  
Precipitation 0.00 in 0.01 in 0.40 in (2001)
Month to date precipitation 0.41 0.47  
Year to date precipitation 9.13 8.55  
Sea Level Pressure  
Sea Level Pressure 30.16 in    
Wind  
Wind Speed 2 mph ()    
Max Wind Speed 8 mph    
Max Gust Speed 14 mph    
Visibility 10.0 miles    
Events      
T = Trace of Precipitation, MM = Missing Value Source: Averaged Metar Reports

Daily Weather History Graph

Daily Weather History Graph

Search for Another Location

Airport or City:

Astronomy

Nov. 22, 2019 Rise Set
Actual Time 7:12 AM MST 4:55 PM MST
Civil Twilight 6:42 AM MST 5:25 PM MST
Nautical Twilight 6:09 AM MST 5:58 PM MST
Astronomical Twilight 5:36 AM MST 6:31 PM MST
Moon 2:20 AM MST (11/22) 2:59 PM MST (11/22)
Length of Visible Light 10h 43m
Length of Day
9h 43m
Waning Crescent, 19% of the Moon is Illuminated
Nov 22
Waning Crescent
Nov 26
New
Dec 3
First Quarter
Dec 11
Full
Dec 18
Last Quarter

Hourly Weather History & Observations

Time (MST) Temp. Windchill Dew Point Humidity Pressure Visibility Wind Dir Wind Speed Gust Speed Precip Events Conditions
12:14 AM 36.0 °F - 28.0 °F 73% 30.06 in 10.0 mi Calm Calm - N/A   Overcast
12:53 AM 35.1 °F 32.2 °F 30.0 °F 82% 30.09 in 10.0 mi ESE 3.5 mph - N/A   Overcast
1:53 AM 35.1 °F 32.2 °F 30.0 °F 82% 30.10 in 10.0 mi NE 3.5 mph - N/A   Overcast
2:53 AM 35.1 °F - 30.0 °F 82% 30.10 in 10.0 mi Calm Calm - N/A   Overcast
3:53 AM 35.1 °F - 30.0 °F 82% 30.09 in 10.0 mi Calm Calm - N/A   Overcast
4:02 AM 35.1 °F - 30.0 °F 82% 30.09 in 10.0 mi Calm Calm - N/A   Overcast
4:53 AM 30.0 °F 26.5 °F 27.0 °F 88% 30.12 in 10.0 mi South 3.5 mph - N/A   Clear
5:53 AM 30.0 °F 25.2 °F 27.0 °F 88% 30.14 in 10.0 mi West 4.6 mph - N/A   Mostly Cloudy
6:53 AM 30.0 °F - 27.0 °F 88% 30.16 in 10.0 mi Calm Calm - N/A   Overcast
7:53 AM 32.0 °F - 28.0 °F 85% 30.18 in 10.0 mi Calm Calm - N/A   Overcast
8:53 AM 34.0 °F - 30.0 °F 85% 30.18 in 10.0 mi Calm Calm - N/A   Mostly Cloudy
9:53 AM 37.0 °F 33.3 °F 28.9 °F 73% 30.18 in 10.0 mi South 4.6 mph - N/A   Mostly Cloudy
10:22 AM 39.0 °F 35.7 °F 28.9 °F 67% 30.16 in 10.0 mi SSE 4.6 mph - N/A   Partly Cloudy
10:53 AM 39.0 °F 36.8 °F 28.9 °F 67% 30.17 in 10.0 mi South 3.5 mph - N/A   Clear
11:31 AM 41.0 °F 38.0 °F 30.0 °F 65% 30.15 in 10.0 mi North 4.6 mph - N/A   Mostly Cloudy
11:53 AM 41.0 °F - 30.0 °F 65% 30.15 in 10.0 mi Calm Calm - N/A   Overcast
12:40 PM 43.0 °F 40.3 °F 30.0 °F 60% 30.14 in 10.0 mi Variable 4.6 mph - N/A   Mostly Cloudy
12:51 PM 42.8 °F 39.3 °F 30.2 °F 61% 30.13 in 10.0 mi SW 5.8 mph - N/A   Mostly Cloudy
12:53 PM 43.0 °F 41.3 °F 30.0 °F 60% 30.14 in 10.0 mi Variable 3.5 mph - N/A   Mostly Cloudy
1:53 PM 42.1 °F - 30.0 °F 62% 30.13 in 10.0 mi Calm Calm - N/A   Overcast
2:20 PM 43.0 °F - 30.0 °F 60% 30.13 in 10.0 mi Calm Calm - N/A   Overcast
2:53 PM 45.0 °F 43.5 °F 30.0 °F 56% 30.12 in 10.0 mi Variable 3.5 mph - N/A   Overcast
3:53 PM 42.1 °F - 28.9 °F 60% 30.13 in 10.0 mi Calm Calm - N/A   Partly Cloudy
4:53 PM 39.9 °F 37.8 °F 30.0 °F 68% 30.18 in 10.0 mi WSW 3.5 mph - N/A   Clear
5:53 PM 35.1 °F - 28.9 °F 78% 30.21 in 10.0 mi Calm Calm - N/A   Overcast
6:53 PM 35.1 °F - 30.0 °F 82% 30.22 in 10.0 mi Calm Calm - N/A   Overcast
7:53 PM 36.0 °F - 30.0 °F 79% 30.25 in 10.0 mi Calm Calm - N/A   Overcast
8:53 PM 35.1 °F 32.2 °F 30.0 °F 82% 30.26 in 10.0 mi SSW 3.5 mph - N/A   Overcast
9:53 PM 35.1 °F - 28.0 °F 76% 30.26 in 10.0 mi Calm Calm - N/A   Overcast
10:53 PM 34.0 °F - 30.0 °F 85% 30.27 in 10.0 mi Calm Calm - N/A   Overcast
11:53 PM 37.0 °F - 28.0 °F 70% 30.27 in 10.0 mi Calm Calm - N/A   Overcast